ES8TJM-10 Weather Reports


time (UTC)temp
C
wind
direction
speed
KPH
gust
KPH
rain 1hr
cm
rain 24hr
cm
rain mn
cm
humidity
%
barometer
mb
20260506084718 11 327 14.5 20.9 0.00 0.00 0.00 24 1014.7
20260506083604 11 12 11.3 17.7 0.00 0.00 0.00 27 1014.6
20260506082703 11 320 11.3 17.7 0.00 0.00 0.00 29 1014.6
20260506081804 10 338 14.5 17.7 0.00 0.00 0.00 27 1014.5
20260506080903 10 15 14.5 17.7 0.00 0.00 0.00 27 1014.5
20260506072704 10 332 11.3 14.5 0.00 0.00 0.00 37 1014.3
20260506072017 9 345 11.3 14.5 0.00 0.00 0.00 36 1014.2
20260506071118 10 336 12.9 16.1 0.00 0.00 0.00 37 1014.1
20260506061803 9 59 8.0 12.9 0.00 0.00 0.00 62 1013.8
20260506060904 8 30 4.8 8.0 0.00 0.00 0.00 67 1013.9
20260506050904 7 349 4.8 6.4 0.00 0.00 0.00 77 1013.5
20260506050217 7 355 0.0 3.2 0.00 0.00 0.00 79 1013.5
20260506044503 5 0 0.0 0.0 0.00 0.00 0.00 83 1013.5
20260506043603 4 45 0.0 1.6 0.00 0.00 0.00 85 1013.5
20260506042917 3 0 0.0 0.0 0.00 0.00 0.00 86 1013.4
20260506041803 2 92 1.6 3.2 0.00 0.00 0.00 82 1013.2
20260506040903 1 133 1.6 1.6 0.00 0.00 0.00 85 1013.1
20260506040004 1 137 1.6 3.2 0.00 0.00 0.00 87 1013.0
20260506035618 1 150 1.6 3.2 0.00 0.00 0.00 87 1013.0
20260506034503 0 180 1.6 3.2 0.00 0.00 0.00 89 1012.9
20260506033817 0 180 1.6 3.2 0.00 0.00 0.00 90 1012.8
20260506032703 0 164 0.0 3.2 0.00 0.00 0.00 90 1012.5
20260506031803 0 84 3.2 4.8 0.00 0.00 0.00 90 1012.5
20260506030903 -1 71 3.2 4.8 0.00 0.00 0.00 89 1012.4
20260506030004 -1 41 1.6 3.2 0.00 0.00 0.00 90 1012.4
20260506025618 -1 25 1.6 3.2 0.00 0.00 0.00 90 1012.2
20260506024503 -2 40 3.2 3.2 0.00 0.00 0.00 85 1012.2
20260506023603 -2 33 1.6 3.2 0.00 0.00 0.00 85 1012.2
20260506022703 -2 44 1.6 3.2 0.00 0.00 0.00 89 1012.2
20260506022017 -1 45 0.0 3.2 0.00 0.00 0.00 89 1012.1
20260506020903 -1 208 4.8 6.4 0.00 0.00 0.00 89 1011.9
20260506020004 -1 249 6.4 8.0 0.00 0.00 0.00 89 1011.8
20260506015403 -2 236 6.4 8.0 0.00 0.00 0.00 84 1011.8
20260506014503 -2 219 4.8 6.4 0.00 0.00 0.00 84 1011.8
20260506013603 -2 181 3.2 4.8 0.00 0.00 0.00 88 1011.7
20260506012704 -2 0 0.0 0.0 0.00 0.00 0.00 84 1011.7
20260506012017 -2 0 0.0 0.0 0.00 0.00 0.00 84 1011.6
20260506010903 -2 90 3.2 4.8 0.00 0.00 0.00 88 1011.5
20260506010003 -1 71 4.8 4.8 0.00 0.00 0.00 88 1011.5
20260506005403 -1 50 4.8 4.8 0.00 0.00 0.00 88 1011.3
20260506004504 -1 90 0.0 3.2 0.00 0.00 0.00 87 1011.4
20260506003818 -1 90 0.0 1.6 0.00 0.00 0.00 87 1011.2
20260506002917 -1 66 3.2 4.8 0.00 0.00 0.00 87 1011.1
20260506001803 -1 180 0.0 1.6 0.00 0.00 0.00 86 1011.2
20260506001118 -1 180 1.6 3.2 0.00 0.00 0.00 86 1011.0
20260506000004 -1 93 1.6 3.2 0.00 0.00 0.00 85 1010.9
20260505235403 -1 84 3.2 4.8 0.00 0.00 0.00 85 1011.0
20260505234503 0 53 4.8 6.4 0.00 0.00 0.00 84 1010.8
20260505233603 0 225 1.6 3.2 0.00 0.00 0.00 83 1010.9
20260505232703 0 0 0.0 0.0 0.00 0.00 0.00 82 1010.8
20260505231803 0 0 0.0 0.0 0.00 0.00 0.00 82 1010.8
20260505230903 0 0 0.0 0.0 0.00 0.00 0.00 81 1010.9
20260505230004 0 0 0.0 0.0 0.00 0.00 0.00 80 1010.9
20260505225403 0 225 0.0 3.2 0.00 0.00 0.00 79 1010.9
20260505224718 0 258 3.2 3.2 0.00 0.00 0.00 79 1010.8
20260505223603 0 284 3.2 4.8 0.00 0.03 0.00 79 1010.9
20260505222704 0 315 3.2 4.8 0.00 0.03 0.00 79 1010.8
20260505221803 1 315 3.2 4.8 0.00 0.03 0.00 79 1010.8
20260505220903 1 315 4.8 4.8 0.00 0.03 0.00 78 1010.8
20260505220218 1 315 4.8 4.8 0.00 0.03 0.00 77 1010.8
20260505215403 1 315 1.6 3.2 0.00 0.03 0.00 77 1010.7
20260505214503 2 284 4.8 6.4 0.00 0.03 0.00 76 1010.6
20260505213603 2 270 4.8 6.4 0.00 0.03 0.00 75 1010.5
20260505212703 2 270 3.2 4.8 0.00 0.03 0.00 72 1010.4
20260505211804 2 306 1.6 3.2 0.00 0.03 0.00 68 1010.5
20260505210903 2 315 3.2 4.8 0.00 0.03 0.00 67 1010.4
20260505210005 2 315 4.8 6.4 0.00 0.03 0.00 66 1010.5
20260505205403 2 315 3.2 4.8 0.00 0.03 0.03 65 1010.4
20260505204503 2 315 3.2 4.8 0.00 0.03 0.03 65 1010.3
20260505203603 2 324 3.2 3.2 0.00 0.03 0.03 65 1010.2
20260505202703 2 340 3.2 3.2 0.00 0.03 0.03 64 1010.2
20260505201803 2 315 3.2 4.8 0.00 0.03 0.03 60 1010.1
20260505200903 3 315 4.8 4.8 0.00 0.03 0.03 63 1010.1
20260505200004 3 311 4.8 6.4 0.00 0.03 0.03 61 1009.8
20260505195617 3 311 6.4 6.4 0.00 0.03 0.03 58 1009.8
20260505194503 5 315 6.4 6.4 0.00 0.03 0.03 55 1009.7
20260505193603 5 291 4.8 6.4 0.00 0.03 0.03 54 1009.7
20260505192703 5 311 4.8 6.4 0.00 0.03 0.03 52 1009.6
20260505191803 5 312 6.4 6.4 0.00 0.03 0.03 51 1009.7
20260505191118 6 311 4.8 6.4 0.00 0.03 0.03 50 1009.6
20260505190004 6 312 6.4 6.4 0.00 0.03 0.03 49 1009.5
20260505185403 6 315 6.4 6.4 0.00 0.03 0.03 48 1009.4
20260505184503 6 308 6.4 6.4 0.00 0.03 0.03 48 1009.4
20260505183817 6 305 6.4 6.4 0.00 0.03 0.03 47 1009.4
20260505182917 7 312 6.4 8.0 0.00 0.03 0.03 46 1009.4
20260505181803 7 315 8.0 8.0 0.00 0.03 0.03 46 1009.2
20260505180903 7 315 11.3 12.9 0.00 0.03 0.03 47 1009.2
20260505180003 7 318 9.7 14.5 0.00 0.03 0.03 49 1009.1
20260505175619 8 322 11.3 14.5 0.00 0.03 0.03 49 1009.1
20260505174503 8 317 12.9 16.1 0.00 0.03 0.03 50 1009.0
20260505173817 8 319 11.3 16.1 0.00 0.03 0.03 50 1009.0
20260505172703 8 322 14.5 17.7 0.00 0.03 0.03 50 1009.0
20260505171803 8 332 16.1 17.7 0.00 0.03 0.03 49 1009.0
20260505170903 9 327 12.9 17.7 0.00 0.03 0.03 50 1008.8
20260505170004 9 337 19.3 24.1 0.00 0.03 0.03 51 1008.9
20260505165403 9 328 19.3 22.5 0.00 0.03 0.03 51 1008.8
20260505164503 9 317 19.3 24.1 0.00 0.03 0.03 51 1008.8
20260505163603 10 323 19.3 24.1 0.00 0.03 0.03 49 1008.7
20260505162703 10 328 14.5 17.7 0.00 0.03 0.03 51 1008.6
20260505162017 10 319 17.7 24.1 0.00 0.03 0.03 50 1008.6
20260505161117 10 304 20.9 25.7 0.00 0.03 0.03 49 1008.6
20260505152703 10 314 22.5 30.6 0.00 0.03 0.03 50 1008.6
20260505152017 10 310 25.7 30.6 0.00 0.03 0.03 52 1008.5
20260505151117 10 321 24.1 29.0 0.00 0.03 0.03 52 1008.4
20260505124503 11 306 24.1 33.8 0.00 0.03 0.03 51 1007.7
20260505123603 12 311 29.0 35.4 0.00 0.03 0.03 47 1007.5
20260505122703 12 323 25.7 32.2 0.00 0.03 0.03 49 1007.4
20260505121803 11 313 27.4 32.2 0.00 0.03 0.03 49 1007.5
20260505120903 12 295 20.9 29.0 0.00 0.03 0.03 51 1007.4
20260505120004 12 283 22.5 29.0 0.00 0.03 0.03 50 1007.2
20260505115403 13 314 25.7 35.4 0.00 0.03 0.03 49 1007.2
20260505114503 13 270 16.1 25.7 0.00 0.03 0.03 54 1007.1
20260505113603 12 282 17.7 25.7 0.00 0.03 0.03 55 1006.9
20260505112704 13 275 17.7 20.9 0.00 0.03 0.03 55 1006.8
20260505112018 12 232 16.1 19.3 0.00 0.03 0.03 58 1006.8
20260505110903 12 224 17.7 19.3 0.00 0.03 0.03 58 1006.8
20260505110219 12 226 17.7 24.1 0.00 0.03 0.03 59 1006.9
20260505102017 12 240 17.7 20.9 0.00 0.03 0.03 59 1006.7
20260505100903 11 228 17.7 22.5 0.00 0.03 0.03 63 1006.8
20260505100004 11 229 20.9 25.7 0.00 0.03 0.03 63 1006.6
20260505095618 11 225 20.9 25.7 0.00 0.03 0.03 63 1006.6
20260505094503 11 228 19.3 24.1 0.00 0.03 0.03 62 1006.5
20260505093603 11 223 22.5 27.4 0.00 0.03 0.03 62 1006.5
20260505092703 11 231 17.7 22.5 0.00 0.03 0.03 62 1006.5
20260505091803 10 225 22.5 29.0 0.00 0.03 0.03 63 1006.5
20260505090903 11 227 20.9 29.0 0.00 0.03 0.03 61 1006.5
20260505090218 12 234 19.3 24.1 0.00 0.03 0.03 59 1006.2
20260505085403 11 231 19.3 24.1 0.00 0.03 0.03 61 1006.1